Location: Ripley
(48.3812°N, 115.4473°W)
Time: 01:32:18
(UTC+00:00)

EO-79 - Pass Details

Date: 04 July 2022
Orbit: 588 x 603 km, 98.0° (Epoch: 15 August)

Event Time Altitude Azimuth Distance (km) Brightness Sun altitude
Rises 09:29:37 0° 14° (NNE) 2,859 ? -15.1°
Reaches altitude 10° 09:31:48 10° 15° (NNE) 1,954 ? -14.9°
Maximum altitude 09:36:03 83° 104° (ESE) 614 ? -14.6°
Enters shadow 09:38:38 23° 190° (S) 1,285 ? -14.4°
